Time,TemperatureF,DewpointF,PressureIn,WindDirection,WindDirectionDegrees,WindSpeedMPH,WindSpeedGustMPH,Humidity,HourlyPrecipIn,Conditions,Clouds,dailyrainin,SoftwareType,DateUTC
2013-03-16 00:02:00,42.0,33.0,29.74,North,0,0.0,3.0,69,0.00,,,0.00,,2013-03-16 04:02:00,
2013-03-16 00:13:00,42.0,33.0,29.74,North,0,0.0,3.0,69,0.00,,,0.00,,2013-03-16 04:13:00,
2013-03-16 00:23:00,42.0,33.0,29.74,North,0,0.0,3.0,69,0.00,,,0.00,,2013-03-16 04:23:00,
2013-03-16 00:33:00,42.0,33.0,29.74,North,0,0.0,6.0,69,0.00,,,0.00,,2013-03-16 04:33:00,
2013-03-16 00:43:00,42.0,33.0,29.74,North,0,0.0,6.0,69,0.00,,,0.00,,2013-03-16 04:43:00,
2013-03-16 00:53:00,42.0,33.0,29.74,North,0,0.0,4.0,70,0.00,,,0.00,,2013-03-16 04:53:00,
2013-03-16 01:02:00,42.0,33.0,29.74,North,0,0.0,1.0,70,0.00,,,0.00,,2013-03-16 05:02:00,
2013-03-16 01:12:00,42.0,33.0,29.74,North,0,0.0,1.0,70,0.00,,,0.00,,2013-03-16 05:12:00,
2013-03-16 01:22:00,42.0,33.0,29.74,North,0,0.0,0.0,70,0.00,,,0.00,,2013-03-16 05:22:00,
2013-03-16 01:32:00,42.0,33.0,29.74,North,0,0.0,2.0,70,0.00,,,0.00,,2013-03-16 05:32:00,
2013-03-16 01:42:00,42.0,33.0,29.74,North,0,0.0,2.0,70,0.00,,,0.00,,2013-03-16 05:42:00,
2013-03-16 01:53:00,43.0,34.0,29.74,North,0,0.0,3.0,70,0.00,,,0.00,,2013-03-16 05:53:00,
2013-03-16 02:02:00,43.0,34.0,29.75,North,0,0.0,3.0,70,0.00,,,0.00,,2013-03-16 06:02:00,
2013-03-16 02:12:00,43.0,34.0,29.75,North,0,0.0,3.0,70,0.00,,,0.00,,2013-03-16 06:12:00,
2013-03-16 02:22:00,43.0,34.0,29.75,NNE,20,1.0,4.0,70,0.00,,,0.00,,2013-03-16 06:22:00,
2013-03-16 02:32:00,43.0,34.0,29.75,North,0,0.0,7.0,69,0.00,,,0.00,,2013-03-16 06:32:00,
2013-03-16 02:42:00,43.0,34.0,29.75,North,0,0.0,7.0,69,0.00,,,0.00,,2013-03-16 06:42:00,
2013-03-16 02:52:00,43.0,34.0,29.75,North,0,0.0,1.0,69,0.00,,,0.00,,2013-03-16 06:52:00,
2013-03-16 03:02:00,43.0,34.0,29.76,North,0,0.0,3.0,69,0.00,,,0.00,,2013-03-16 07:02:00,
2013-03-16 03:12:00,43.0,34.0,29.76,North,0,0.0,3.0,69,0.00,,,0.00,,2013-03-16 07:12:00,
2013-03-16 03:22:00,43.0,34.0,29.76,North,0,0.0,2.0,69,0.00,,,0.00,,2013-03-16 07:22:00,
2013-03-16 03:32:00,43.0,34.0,29.76,North,0,0.0,6.0,69,0.00,,,0.00,,2013-03-16 07:32:00,
2013-03-16 03:42:00,43.0,34.0,29.76,North,0,0.0,6.0,69,0.00,,,0.00,,2013-03-16 07:42:00,
2013-03-16 03:52:00,42.0,33.0,29.77,North,0,0.0,7.0,69,0.00,,,0.00,,2013-03-16 07:52:00,
2013-03-16 04:02:00,42.0,33.0,29.77,North,0,0.0,3.0,69,0.00,,,0.00,,2013-03-16 08:02:00,
2013-03-16 04:12:00,42.0,33.0,29.77,North,0,0.0,3.0,69,0.00,,,0.00,,2013-03-16 08:12:00,
2013-03-16 04:23:00,41.0,31.0,29.76,North,0,0.0,3.0,68,0.00,,,0.00,,2013-03-16 08:23:00,
2013-03-16 04:32:00,41.0,31.0,29.76,North,0,0.0,3.0,68,0.00,,,0.00,,2013-03-16 08:32:00,
2013-03-16 04:42:00,41.0,31.0,29.76,North,0,0.0,3.0,68,0.00,,,0.00,,2013-03-16 08:42:00,
2013-03-16 04:52:00,41.0,31.0,29.76,North,0,0.0,4.0,68,0.00,,,0.00,,2013-03-16 08:52:00,
2013-03-16 05:02:00,41.0,32.0,29.76,North,0,0.0,2.0,69,0.00,,,0.00,,2013-03-16 09:02:00,
2013-03-16 05:12:00,41.0,32.0,29.76,North,0,0.0,2.0,69,0.00,,,0.00,,2013-03-16 09:12:00,
2013-03-16 05:22:00,41.0,32.0,29.77,North,0,0.0,2.0,70,0.00,,,0.00,,2013-03-16 09:22:00,
2013-03-16 05:33:00,40.0,31.0,29.77,North,0,0.0,0.0,69,0.00,,,0.00,,2013-03-16 09:33:00,
2013-03-16 05:42:00,40.0,31.0,29.77,North,0,0.0,0.0,69,0.00,,,0.00,,2013-03-16 09:42:00,
2013-03-16 05:53:00,40.0,30.0,29.76,North,0,0.0,1.0,68,0.00,,,0.00,,2013-03-16 09:53:00,
2013-03-16 06:03:00,40.0,30.0,29.76,North,0,0.0,2.0,67,0.00,,,0.00,,2013-03-16 10:03:00,
2013-03-16 06:12:00,40.0,30.0,29.76,North,0,0.0,2.0,67,0.00,,,0.00,,2013-03-16 10:12:00,
2013-03-16 06:23:00,39.0,29.0,29.76,North,0,0.0,2.0,66,0.00,,,0.00,,2013-03-16 10:23:00,
2013-03-16 06:32:00,39.0,29.0,29.77,North,0,0.0,1.0,67,0.00,,,0.00,,2013-03-16 10:32:00,
2013-03-16 06:42:00,39.0,29.0,29.77,North,0,0.0,1.0,67,0.00,,,0.00,,2013-03-16 10:42:00,
2013-03-16 06:53:00,39.0,29.0,29.77,North,0,0.0,2.0,67,0.00,,,0.00,,2013-03-16 10:53:00,
2013-03-16 07:03:00,39.0,29.0,29.78,North,0,0.0,2.0,67,0.00,,,0.00,,2013-03-16 11:03:00,
2013-03-16 07:12:00,39.0,29.0,29.78,North,0,0.0,2.0,67,0.00,,,0.00,,2013-03-16 11:12:00,
2013-03-16 07:22:00,39.0,29.0,29.78,North,0,0.0,1.0,68,0.00,,,0.00,,2013-03-16 11:22:00,
2013-03-16 07:32:00,38.0,28.0,29.78,North,0,0.0,1.0,68,0.00,,,0.00,,2013-03-16 11:32:00,
2013-03-16 07:43:00,38.0,28.0,29.78,North,0,0.0,1.0,68,0.00,,,0.00,,2013-03-16 11:43:00,
2013-03-16 07:53:00,38.0,28.0,29.78,North,0,0.0,5.0,68,0.00,,,0.00,,2013-03-16 11:53:00,
2013-03-16 08:02:00,38.0,28.0,29.78,North,0,0.0,2.0,67,0.00,,,0.00,,2013-03-16 12:02:00,
2013-03-16 08:12:00,38.0,28.0,29.78,North,0,0.0,2.0,67,0.00,,,0.00,,2013-03-16 12:12:00,
2013-03-16 08:22:00,38.0,28.0,29.77,North,0,0.0,2.0,67,0.00,,,0.00,,2013-03-16 12:22:00,
2013-03-16 08:32:00,38.0,28.0,29.78,North,0,0.0,2.0,66,0.00,,,0.00,,2013-03-16 12:32:00,
2013-03-16 08:42:00,38.0,28.0,29.78,North,0,0.0,2.0,66,0.00,,,0.00,,2013-03-16 12:42:00,
2013-03-16 08:53:00,38.0,27.0,29.77,North,0,0.0,6.0,65,0.00,,,0.00,,2013-03-16 12:53:00,
2013-03-16 09:02:00,38.0,27.0,29.79,North,0,0.0,3.0,65,0.00,,,0.00,,2013-03-16 13:02:00,
2013-03-16 09:12:00,38.0,27.0,29.79,North,0,0.0,3.0,65,0.00,,,0.00,,2013-03-16 13:12:00,
2013-03-16 09:22:00,38.0,28.0,29.78,North,0,0.0,3.0,66,0.00,,,0.00,,2013-03-16 13:22:00,
2013-03-16 09:32:00,38.0,27.0,29.78,North,0,0.0,2.0,65,0.00,,,0.00,,2013-03-16 13:32:00,
2013-03-16 09:42:00,38.0,27.0,29.78,North,0,0.0,2.0,65,0.00,,,0.00,,2013-03-16 13:42:00,
2013-03-16 09:53:00,38.0,28.0,29.79,North,0,0.0,2.0,68,0.00,,,0.00,,2013-03-16 13:53:00,
2013-03-16 10:02:00,37.0,28.0,29.78,North,0,0.0,0.0,71,0.00,,,0.00,,2013-03-16 14:02:00,
2013-03-16 10:12:00,37.0,28.0,29.78,North,0,0.0,0.0,71,0.00,,,0.00,,2013-03-16 14:12:00,
2013-03-16 10:22:00,37.0,29.0,29.79,North,0,0.0,2.0,74,0.00,,,0.00,,2013-03-16 14:22:00,
2013-03-16 10:32:00,36.0,29.0,29.78,North,0,0.0,0.0,77,0.00,,,0.00,,2013-03-16 14:32:00,
2013-03-16 10:42:00,36.0,29.0,29.78,North,0,0.0,0.0,77,0.00,,,0.00,,2013-03-16 14:42:00,
2013-03-16 10:52:00,36.0,30.0,29.79,North,0,0.0,0.0,79,0.00,,,0.00,,2013-03-16 14:52:00,
2013-03-16 11:03:00,36.0,31.0,29.78,North,0,0.0,1.0,81,0.00,,,0.00,,2013-03-16 15:03:00,
2013-03-16 11:12:00,36.0,31.0,29.78,North,0,0.0,1.0,81,0.00,,,0.00,,2013-03-16 15:12:00,
2013-03-16 11:23:00,35.0,30.0,29.79,North,0,0.0,3.0,83,0.01,,,0.01,,2013-03-16 15:23:00,
2013-03-16 11:33:00,34.0,30.0,29.78,North,0,0.0,3.0,84,0.01,,,0.01,,2013-03-16 15:33:00,
2013-03-16 11:43:00,34.0,30.0,29.78,North,0,0.0,3.0,84,0.01,,,0.01,,2013-03-16 15:43:00,
2013-03-16 11:53:00,34.0,30.0,29.78,North,0,0.0,5.0,86,0.01,,,0.01,,2013-03-16 15:53:00,
2013-03-16 12:03:00,34.0,31.0,29.76,North,0,0.0,4.0,87,0.01,,,0.01,,2013-03-16 16:03:00,
2013-03-16 12:12:00,34.0,31.0,29.76,North,0,0.0,4.0,87,0.01,,,0.01,,2013-03-16 16:12:00,
2013-03-16 12:23:00,33.0,30.0,29.76,North,0,0.0,4.0,88,0.00,,,0.01,,2013-03-16 16:23:00,
2013-03-16 12:33:00,33.0,30.0,29.75,North,0,0.0,2.0,89,0.00,,,0.01,,2013-03-16 16:33:00,
2013-03-16 12:42:00,33.0,30.0,29.75,North,0,0.0,2.0,89,0.00,,,0.01,,2013-03-16 16:42:00,
2013-03-16 12:53:00,33.0,30.0,29.75,North,0,0.0,4.0,89,0.00,,,0.01,,2013-03-16 16:53:00,
2013-03-16 13:03:00,33.0,30.0,29.74,North,0,0.0,6.0,90,0.00,,,0.01,,2013-03-16 17:03:00,
2013-03-16 13:13:00,33.0,30.0,29.74,North,0,0.0,6.0,90,0.00,,,0.01,,2013-03-16 17:13:00,
2013-03-16 13:23:00,33.0,30.0,29.73,SE,130,1.0,7.0,90,0.00,,,0.01,,2013-03-16 17:23:00,
2013-03-16 13:32:00,32.0,30.0,29.73,North,0,0.0,3.0,91,0.00,,,0.01,,2013-03-16 17:32:00,
2013-03-16 13:42:00,32.0,30.0,29.73,North,0,0.0,3.0,91,0.00,,,0.01,,2013-03-16 17:42:00,
2013-03-16 13:53:00,32.0,30.0,29.73,ESE,111,1.0,5.0,91,0.00,,,0.01,,2013-03-16 17:53:00,
2013-03-16 14:02:00,32.0,30.0,29.72,North,0,0.0,3.0,91,0.00,,,0.01,,2013-03-16 18:02:00,
2013-03-16 14:13:00,32.0,30.0,29.72,North,0,0.0,3.0,91,0.00,,,0.01,,2013-03-16 18:13:00,
2013-03-16 14:23:00,32.0,30.0,29.72,North,0,0.0,5.0,91,0.00,,,0.01,,2013-03-16 18:23:00,
2013-03-16 14:33:00,33.0,31.0,29.73,North,0,0.0,3.0,91,0.01,,,0.02,,2013-03-16 18:33:00,
2013-03-16 14:43:00,33.0,31.0,29.73,North,0,0.0,3.0,91,0.01,,,0.02,,2013-03-16 18:43:00,
2013-03-16 14:53:00,32.0,30.0,29.72,North,0,0.0,5.0,91,0.01,,,0.02,,2013-03-16 18:53:00,
2013-03-16 15:02:00,32.0,30.0,29.70,North,0,0.0,6.0,91,0.01,,,0.02,,2013-03-16 19:02:00,
2013-03-16 15:12:00,32.0,30.0,29.70,North,0,0.0,6.0,91,0.01,,,0.02,,2013-03-16 19:12:00,
2013-03-16 15:22:00,32.0,30.0,29.69,North,0,0.0,9.0,92,0.01,,,0.02,,2013-03-16 19:22:00,
2013-03-16 15:32:00,32.0,30.0,29.70,North,0,0.0,6.0,92,0.00,,,0.02,,2013-03-16 19:32:00,
2013-03-16 15:42:00,32.0,30.0,29.70,North,0,0.0,6.0,92,0.00,,,0.02,,2013-03-16 19:42:00,
2013-03-16 15:53:00,32.0,30.0,29.72,North,0,0.0,5.0,92,0.00,,,0.02,,2013-03-16 19:53:00,
2013-03-16 16:02:00,32.0,30.0,29.70,North,0,0.0,9.0,92,0.01,,,0.03,,2013-03-16 20:02:00,
2013-03-16 16:12:00,32.0,30.0,29.70,North,0,0.0,9.0,92,0.01,,,0.03,,2013-03-16 20:12:00,
2013-03-16 16:22:00,32.0,30.0,29.72,North,0,0.0,5.0,93,0.03,,,0.05,,2013-03-16 20:22:00,
2013-03-16 16:32:00,32.0,30.0,29.71,North,0,0.0,4.0,93,0.05,,,0.07,,2013-03-16 20:32:00,
2013-03-16 16:42:00,32.0,30.0,29.71,North,0,0.0,4.0,93,0.05,,,0.07,,2013-03-16 20:42:00,
2013-03-16 16:52:00,32.0,30.0,29.71,North,0,0.0,3.0,93,0.07,,,0.09,,2013-03-16 20:52:00,
2013-03-16 17:02:00,32.0,30.0,29.71,North,0,0.0,2.0,93,0.07,,,0.10,,2013-03-16 21:02:00,
2013-03-16 17:12:00,32.0,30.0,29.71,North,0,0.0,2.0,93,0.07,,,0.10,,2013-03-16 21:12:00,
2013-03-16 17:22:00,32.0,30.0,29.71,North,0,0.0,6.0,93,0.05,,,0.10,,2013-03-16 21:22:00,
2013-03-16 17:33:00,32.0,30.0,29.71,North,0,0.0,4.0,94,0.03,,,0.10,,2013-03-16 21:33:00,
2013-03-16 17:43:00,32.0,30.0,29.71,North,0,0.0,4.0,94,0.03,,,0.10,,2013-03-16 21:43:00,
2013-03-16 17:53:00,32.0,30.0,29.70,ESE,119,1.0,5.0,94,0.02,,,0.11,,2013-03-16 21:53:00,
2013-03-16 18:03:00,32.0,30.0,29.71,North,0,0.0,5.0,94,0.01,,,0.11,,2013-03-16 22:03:00,
2013-03-16 18:12:00,32.0,30.0,29.71,North,0,0.0,5.0,94,0.01,,,0.11,,2013-03-16 22:12:00,
2013-03-16 18:23:00,31.0,29.0,29.72,North,0,0.0,7.0,94,0.01,,,0.11,,2013-03-16 22:23:00,
2013-03-16 18:33:00,31.0,29.0,29.72,North,0,0.0,2.0,94,0.01,,,0.11,,2013-03-16 22:33:00,
2013-03-16 18:42:00,31.0,29.0,29.72,North,0,0.0,2.0,94,0.01,,,0.11,,2013-03-16 22:42:00,
2013-03-16 18:53:00,31.0,29.0,29.72,North,0,0.0,3.0,94,0.00,,,0.11,,2013-03-16 22:53:00,
2013-03-16 19:02:00,31.0,29.0,29.73,North,0,0.0,2.0,94,0.00,,,0.11,,2013-03-16 23:02:00,
2013-03-16 19:13:00,31.0,29.0,29.73,North,0,0.0,2.0,94,0.00,,,0.11,,2013-03-16 23:13:00,
2013-03-16 19:23:00,31.0,30.0,29.74,North,0,0.0,1.0,95,0.00,,,0.11,,2013-03-16 23:23:00,
2013-03-16 19:33:00,31.0,30.0,29.74,North,0,0.0,2.0,95,0.00,,,0.11,,2013-03-16 23:33:00,
2013-03-16 19:42:00,31.0,30.0,29.74,North,0,0.0,2.0,95,0.00,,,0.11,,2013-03-16 23:42:00,
2013-03-16 19:53:00,31.0,29.0,29.75,North,0,0.0,1.0,94,0.00,,,0.11,,2013-03-16 23:53:00,
2013-03-16 20:02:00,31.0,30.0,29.76,North,0,0.0,2.0,95,0.00,,,0.11,,2013-03-17 00:02:00,
2013-03-16 20:12:00,31.0,30.0,29.76,North,0,0.0,2.0,95,0.00,,,0.11,,2013-03-17 00:12:00,
2013-03-16 20:22:00,31.0,30.0,29.78,North,0,0.0,0.0,95,0.00,,,0.11,,2013-03-17 00:22:00,
2013-03-16 20:33:00,31.0,30.0,29.78,North,0,0.0,2.0,95,0.00,,,0.11,,2013-03-17 00:33:00,
2013-03-16 20:42:00,31.0,30.0,29.78,North,0,0.0,2.0,95,0.00,,,0.11,,2013-03-17 00:42:00,
2013-03-16 20:52:00,31.0,30.0,29.80,North,0,0.0,2.0,95,0.00,,,0.11,,2013-03-17 00:52:00,
2013-03-16 21:02:00,31.0,30.0,29.80,North,0,0.0,1.0,95,0.00,,,0.11,,2013-03-17 01:02:00,
2013-03-16 21:12:00,31.0,30.0,29.80,North,0,0.0,1.0,95,0.00,,,0.11,,2013-03-17 01:12:00,
2013-03-16 21:22:00,31.0,30.0,29.81,North,0,0.0,3.0,95,0.00,,,0.11,,2013-03-17 01:22:00,
2013-03-16 21:32:00,31.0,30.0,29.82,North,0,0.0,2.0,95,0.00,,,0.11,,2013-03-17 01:32:00,
2013-03-16 21:42:00,31.0,30.0,29.82,North,0,0.0,2.0,95,0.00,,,0.11,,2013-03-17 01:42:00,
2013-03-16 21:53:00,31.0,30.0,29.82,North,0,0.0,0.0,95,0.00,,,0.11,,2013-03-17 01:53:00,
2013-03-16 22:03:00,31.0,30.0,29.83,North,0,0.0,0.0,95,0.00,,,0.11,,2013-03-17 02:03:00,
2013-03-16 22:13:00,31.0,30.0,29.83,North,0,0.0,0.0,95,0.00,,,0.11,,2013-03-17 02:13:00,
2013-03-16 22:22:00,31.0,30.0,29.84,North,0,0.0,1.0,95,0.00,,,0.11,,2013-03-17 02:22:00,
2013-03-16 22:33:00,31.0,30.0,29.85,North,0,0.0,0.0,95,0.00,,,0.11,,2013-03-17 02:33:00,
2013-03-16 22:43:00,31.0,30.0,29.85,North,0,0.0,0.0,95,0.00,,,0.11,,2013-03-17 02:43:00,
2013-03-16 22:53:00,31.0,30.0,29.86,North,0,0.0,2.0,95,0.00,,,0.11,,2013-03-17 02:53:00,
2013-03-16 23:02:00,31.0,30.0,29.86,North,0,0.0,0.0,95,0.00,,,0.11,,2013-03-17 03:02:00,
2013-03-16 23:12:00,31.0,30.0,29.86,North,0,0.0,0.0,95,0.00,,,0.11,,2013-03-17 03:12:00,
2013-03-16 23:22:00,31.0,30.0,29.87,North,0,0.0,0.0,95,0.00,,,0.11,,2013-03-17 03:22:00,
2013-03-16 23:33:00,31.0,30.0,29.88,North,0,0.0,0.0,95,0.00,,,0.11,,2013-03-17 03:33:00,
2013-03-16 23:43:00,31.0,30.0,29.88,North,0,0.0,0.0,95,0.00,,,0.11,,2013-03-17 03:43:00,
2013-03-16 23:53:00,31.0,30.0,29.88,North,0,0.0,0.0,95,0.00,,,0.11,,2013-03-17 03:53:00,